TimeEST,TemperatureF,Dew PointF,Humidity,Sea Level PressureIn,VisibilityMPH,Wind Direction,Wind SpeedMPH,Gust SpeedMPH,PrecipitationIn,Events,Conditions,WindDirDegrees,DateUTC
12:52 AM,19.0,15.1,85,30.19,8.0,Calm,Calm,-,N/A,,Clear,0,2013-01-06 05:52:00
1:52 AM,19.0,15.1,85,30.20,7.0,Calm,Calm,-,N/A,,Partly Cloudy,0,2013-01-06 06:52:00
2:52 AM,21.9,17.1,82,30.18,8.0,Calm,Calm,-,N/A,,Overcast,0,2013-01-06 07:52:00
3:39 AM,21.2,17.6,86,30.13,1.8,Calm,Calm,-,0.00,Snow,Light Snow,0,2013-01-06 08:39:00
3:43 AM,21.2,17.6,86,30.13,1.0,Calm,Calm,-,0.00,Snow,Light Snow,0,2013-01-06 08:43:00
3:52 AM,21.0,19.0,92,30.15,1.0,Calm,Calm,-,0.00,Snow,Light Snow,0,2013-01-06 08:52:00
4:00 AM,21.2,19.4,93,30.12,1.5,Calm,Calm,-,0.00,Snow,Light Snow,0,2013-01-06 09:00:00
4:24 AM,21.2,19.4,93,30.10,2.0,Calm,Calm,-,0.01,Snow,Light Snow,0,2013-01-06 09:24:00
4:38 AM,21.2,19.4,93,30.09,3.0,Calm,Calm,-,0.01,Snow,Light Snow,0,2013-01-06 09:38:00
4:52 AM,21.9,19.9,92,30.10,4.0,Calm,Calm,-,0.01,Snow,Light Snow,0,2013-01-06 09:52:00
5:28 AM,23.0,19.4,86,30.07,4.0,Calm,Calm,-,0.00,Snow,Light Snow,0,2013-01-06 10:28:00
5:35 AM,23.0,19.4,86,30.07,4.0,Calm,Calm,-,0.00,Snow,Light Snow,0,2013-01-06 10:35:00
5:52 AM,23.0,21.9,96,30.09,3.0,Calm,Calm,-,0.00,Snow,Light Snow,0,2013-01-06 10:52:00
6:44 AM,23.0,21.2,93,30.05,5.0,Calm,Calm,-,0.00,Snow,Light Snow,0,2013-01-06 11:44:00
6:52 AM,21.9,19.9,92,30.07,6.0,Calm,Calm,-,0.00,,Mostly Cloudy,0,2013-01-06 11:52:00
7:00 AM,21.2,21.2,100,30.05,7.0,Calm,Calm,-,N/A,,Scattered Clouds,0,2013-01-06 12:00:00
7:11 AM,21.2,19.4,93,30.04,1.8,Calm,Calm,-,N/A,,Partly Cloudy,0,2013-01-06 12:11:00
7:15 AM,21.2,19.4,93,30.04,1.0,Calm,Calm,-,N/A,,Scattered Clouds,0,2013-01-06 12:15:00
7:23 AM,19.4,19.4,100,30.04,1.5,Calm,Calm,-,N/A,,Scattered Clouds,0,2013-01-06 12:23:00
7:31 AM,19.4,17.6,93,30.04,0.8,Calm,Calm,-,N/A,,Scattered Clouds,0,2013-01-06 12:31:00
7:52 AM,18.0,17.1,96,30.07,0.8,Calm,Calm,-,N/A,,Mist,0,2013-01-06 12:52:00
8:02 AM,19.4,19.4,100,30.04,1.0,South,3.5,-,N/A,,Clear,190,2013-01-06 13:02:00
8:52 AM,25.0,23.0,92,30.06,10.0,South,4.6,-,N/A,,Clear,190,2013-01-06 13:52:00
9:52 AM,30.0,25.0,82,30.04,10.0,South,8.1,-,0.01,,Clear,180,2013-01-06 14:52:00
10:52 AM,32.0,26.1,79,30.03,10.0,SSW,3.5,-,N/A,,Partly Cloudy,200,2013-01-06 15:52:00
12:52 PM,36.0,26.1,67,29.96,10.0,SSW,9.2,-,N/A,,Scattered Clouds,210,2013-01-06 17:52:00
1:52 PM,37.0,26.1,65,29.95,10.0,WSW,5.8,-,N/A,,Overcast,240,2013-01-06 18:52:00
2:52 PM,37.9,26.1,62,29.95,10.0,SSW,6.9,-,N/A,,Overcast,210,2013-01-06 19:52:00
3:52 PM,37.0,26.1,65,29.94,10.0,South,5.8,-,N/A,,Partly Cloudy,180,2013-01-06 20:52:00
4:52 PM,33.1,26.1,75,29.95,10.0,Calm,Calm,-,N/A,,Overcast,0,2013-01-06 21:52:00
5:52 PM,30.0,26.1,85,29.96,10.0,Calm,Calm,-,N/A,,Overcast,0,2013-01-06 22:52:00
6:52 PM,30.0,26.1,85,29.96,10.0,Calm,Calm,-,N/A,,Overcast,0,2013-01-06 23:52:00
7:52 PM,27.0,25.0,92,29.98,8.0,Calm,Calm,-,N/A,,Overcast,0,2013-01-07 00:52:00
8:52 PM,27.0,26.1,96,29.98,7.0,Calm,Calm,-,N/A,,Overcast,0,2013-01-07 01:52:00
9:52 PM,26.1,24.1,92,29.97,4.0,Calm,Calm,-,N/A,,Scattered Clouds,0,2013-01-07 02:52:00
10:52 PM,25.0,24.1,96,29.98,2.5,Calm,Calm,-,N/A,,Mostly Cloudy,0,2013-01-07 03:52:00
10:55 PM,24.8,23.0,93,29.95,1.2,Calm,Calm,-,N/A,,Mostly Cloudy,0,2013-01-07 03:55:00
11:08 PM,24.8,21.2,86,29.95,0.8,Calm,Calm,-,N/A,,Scattered Clouds,0,2013-01-07 04:08:00
11:23 PM,26.6,24.8,93,29.95,1.2,Calm,Calm,-,N/A,,Scattered Clouds,0,2013-01-07 04:23:00
11:25 PM,26.6,24.8,93,29.95,2.0,Calm,Calm,-,N/A,,Scattered Clouds,0,2013-01-07 04:25:00
11:34 PM,24.8,23.0,93,29.95,3.0,Calm,Calm,-,N/A,,Mostly Cloudy,0,2013-01-07 04:34:00
11:52 PM,25.0,24.1,96,29.98,4.0,South,4.6,-,N/A,,Overcast,190,2013-01-07 04:52:00